EW3786 Weather Reports


Display with metric or nautical units.
time (UTC)temp
F
wind
direction
speed
MPH
gust
MPH
rain 1hr
in
rain 24hr
in
rain mn
in
humidity
%
barometer
mb
20260508053829 33 106 3.0 4.0 0.04 0.04 0.01 71 1020.6
20260508053321 33 97 1.0 4.0 0.04 0.04 0.01 74 1020.6
20260508052832 32 97 1.0 3.0 0.04 0.04 0.01 74 1020.5
20260508052323 32 98 1.0 3.0 0.04 0.04 0.01 74 1020.5
20260508051835 32 97 1.0 5.0 0.04 0.04 0.01 75 1020.4
20260508051325 32 95 1.0 5.0 0.04 0.04 0.01 76 1020.4
20260508050840 31 94 1.0 6.0 0.00 0.00 0.00 76 1020.4
20260508050331 31 91 2.0 6.0 0.00 0.00 0.00 78 1020.4
20260508045820 30 96 1.0 6.0 0.00 0.00 0.00 80 1020.3
20260508045333 30 95 3.0 6.0 0.00 0.00 0.00 81 1020.3
20260508044845 30 91 2.0 5.0 0.00 0.00 0.00 85 1020.3
20260508044334 29 68 1.0 3.0 0.00 0.00 0.00 87 1020.3
20260508043827 28 67 1.0 3.0 0.00 0.00 0.00 86 1020.2
20260508043340 28 64 1.0 3.0 0.00 0.00 0.00 87 1020.1
20260508042832 28 64 0.0 1.0 0.00 0.00 0.00 87 1020.1
20260508042324 28 64 0.0 0.0 0.00 0.00 0.00 87 1020.2
20260508041818 28 64 0.0 1.0 0.00 0.00 0.00 87 1020.1
20260508041332 28 64 0.0 1.0 0.00 0.00 0.00 86 1020.1
20260508040824 28 64 0.0 3.0 0.00 0.00 0.00 85 1020.0
20260508040318 28 64 1.0 7.0 0.00 0.00 0.00 83 1020.1
20260508035829 28 64 4.0 7.0 0.00 0.00 0.00 82 1020.0
20260508035322 28 85 1.0 7.0 0.00 0.00 0.00 82 1019.9
20260508034836 28 64 5.0 8.0 0.00 0.00 0.00 82 1019.9
20260508034348 28 64 4.0 8.0 0.00 0.00 0.00 81 1019.8
20260508033820 29 66 4.0 8.0 0.00 0.00 0.00 81 1019.8
20260508033334 29 60 4.0 8.0 0.00 0.00 0.00 84 1019.8
20260508032825 29 67 3.0 8.0 0.00 0.00 0.00 88 1019.7
20260508032317 30 64 1.0 5.0 0.00 0.00 0.00 90 1019.8
20260508031831 30 64 1.0 4.0 0.00 0.00 0.00 91 1019.8
20260508031321 30 62 0.0 0.0 0.00 0.00 0.00 92 1019.8
20260508030854 30 62 0.0 1.0 0.00 0.00 0.00 91 1019.8
20260508030328 30 62 0.0 1.0 0.00 0.00 0.00 91 1019.7
20260508025817 30 62 0.0 0.0 0.00 0.00 0.00 91 1019.8
20260508025334 30 62 0.0 3.0 0.00 0.00 0.00 90 1019.8
20260508024824 30 62 1.0 3.0 0.00 0.00 0.00 90 1019.7
20260508024336 30 62 1.0 5.0 0.00 0.00 0.00 90 1019.7
20260508023827 30 62 2.0 5.0 0.00 0.00 0.00 90 1019.6
20260508023320 30 61 0.0 2.0 0.00 0.00 0.00 91 1019.6
20260508022833 30 61 0.0 1.0 0.00 0.00 0.00 91 1019.6
20260508022325 30 61 0.0 2.0 0.00 0.00 0.00 91 1019.6
20260508021837 30 61 0.0 3.0 0.00 0.00 0.00 90 1019.5
20260508021333 30 61 0.0 7.0 0.00 0.00 0.00 89 1019.6
20260508020825 30 60 4.0 8.0 0.00 0.00 0.00 89 1019.6
20260508020319 30 59 4.0 8.0 0.00 0.00 0.00 91 1019.6
20260508015829 31 49 3.0 6.0 0.00 0.00 0.00 92 1019.5
20260508015321 31 42 0.0 0.0 0.00 0.00 0.00 92 1019.5
20260508014834 31 42 0.0 0.0 0.00 0.00 0.00 92 1019.4
20260508014325 31 42 0.0 0.0 0.00 0.00 0.00 92 1019.4
20260508013833 31 42 0.0 0.0 0.00 0.00 0.00 92 1019.3
20260508013330 31 42 0.0 0.0 0.00 0.00 0.00 93 1019.3
20260508012839 31 42 0.0 0.0 0.00 0.00 0.00 93 1019.3
20260508012329 31 42 0.0 0.0 0.00 0.00 0.00 93 1019.3
20260508011837 31 42 0.0 1.0 0.00 0.00 0.00 93 1019.2
20260508011328 31 42 0.0 1.0 0.00 0.00 0.00 93 1019.2
20260508010820 31 42 0.0 0.0 0.00 0.00 0.00 93 1019.1
20260508010333 31 42 0.0 2.0 0.00 0.00 0.00 92 1019.1
20260508005844 31 42 1.0 2.0 0.00 0.00 0.00 92 1019.0
20260508005334 31 43 0.0 0.0 0.00 0.00 0.00 92 1019.0
20260508004829 31 43 0.0 0.0 0.00 0.00 0.00 93 1018.9
20260508004340 32 43 0.0 0.0 0.00 0.00 0.00 93 1018.9
20260508003832 32 43 0.0 0.0 0.00 0.00 0.00 93 1018.9
20260508003343 32 43 0.0 0.0 0.00 0.00 0.00 93 1018.9
20260508002834 32 43 0.0 0.0 0.00 0.00 0.00 93 1018.8
20260508002327 32 43 0.0 0.0 0.00 0.00 0.00 93 1018.8
20260508001838 32 43 0.0 0.0 0.00 0.00 0.00 93 1018.8
20260508001350 32 43 0.0 0.0 0.00 0.00 0.00 93 1018.8
20260508000819 32 43 0.0 0.0 0.00 0.00 0.00 93 1018.8
20260508000334 32 43 0.0 0.0 0.00 0.00 0.00 93 1018.7
20260507235826 32 43 0.0 0.0 0.00 0.00 0.00 93 1018.6
20260507235317 32 43 0.0 0.0 0.00 0.00 0.00 93 1018.6
20260507234830 32 43 0.0 0.0 0.00 0.00 0.00 93 1018.5
20260507234322 32 43 0.0 0.0 0.00 0.00 0.00 92 1018.5
20260507233832 32 43 0.0 0.0 0.00 0.00 0.00 93 1018.4
20260507233344 32 43 0.0 0.0 0.00 0.00 0.00 93 1018.3
20260507232833 32 43 0.0 0.0 0.00 0.00 0.00 92 1018.2
20260507232344 32 43 0.0 0.0 0.00 0.00 0.00 92 1018.3
20260507231835 32 43 0.0 1.0 0.00 0.00 0.00 92 1018.3
20260507231327 32 43 0.0 3.0 0.00 0.00 0.00 92 1018.2
20260507230822 32 43 2.0 3.0 0.00 0.00 0.00 93 1018.2
20260507230334 32 43 2.0 3.0 0.00 0.00 0.00 93 1018.2
20260507225846 32 42 1.0 3.0 0.00 0.00 0.00 93 1018.1
20260507225337 32 42 1.0 3.0 0.00 0.00 0.00 93 1018.2
20260507224849 32 42 0.0 2.0 0.00 0.00 0.00 93 1018.1
20260507224322 32 42 0.0 0.0 0.00 0.00 0.00 93 1018.1
20260507223833 32 42 0.0 0.0 0.00 0.00 0.00 93 1018.0
20260507223327 32 42 0.0 0.0 0.00 0.00 0.00 93 1018.0
20260507222838 32 42 0.0 0.0 0.00 0.00 0.00 93 1018.0
20260507222333 32 42 0.0 0.0 0.00 0.00 0.00 92 1018.0
20260507221826 32 42 0.0 0.0 0.00 0.00 0.00 92 1018.0
20260507221316 32 42 0.0 0.0 0.00 0.00 0.00 92 1018.0
20260507220831 32 42 0.0 0.0 0.00 0.00 0.00 92 1017.9
20260507220323 32 42 0.0 0.0 0.00 0.00 0.00 92 1017.9
20260507215835 32 42 0.0 0.0 0.00 0.00 0.00 92 1017.9
20260507215328 32 42 0.0 3.0 0.00 0.00 0.00 91 1017.9
20260507214857 32 42 0.0 3.0 0.00 0.00 0.00 91 1017.7
20260507214350 32 41 0.0 4.0 0.00 0.00 0.00 91 1017.6
20260507213824 32 42 2.0 4.0 0.00 0.00 0.00 90 1017.7
20260507213337 32 33 1.0 3.0 0.00 0.00 0.00 89 1017.7
20260507212829 32 31 1.0 3.0 0.00 0.00 0.00 88 1017.8
20260507212320 32 30 1.0 5.0 0.00 0.00 0.00 86 1017.7
20260507211833 32 310 2.0 5.0 0.00 0.00 0.00 85 1017.7
20260507211326 32 360 2.0 3.0 0.00 0.00 0.00 82 1017.7
20260507210839 32 360 0.0 5.0 0.00 0.00 0.00 80 1017.6
20260507210331 32 360 2.0 5.0 0.00 0.00 0.00 79 1017.5
20260507205824 32 87 0.0 5.0 0.00 0.00 0.00 77 1017.3
20260507205340 32 87 1.0 6.0 0.00 0.00 0.00 77 1017.2
20260507204833 32 87 3.0 7.0 0.00 0.00 0.00 76 1017.2
20260507204323 32 91 3.0 7.0 0.00 0.00 0.00 76 1017.1
20260507203835 32 74 1.0 5.0 0.00 0.00 0.00 76 1017.1
20260507203328 32 74 1.0 3.0 0.00 0.00 0.00 76 1017.0
20260507202818 32 73 1.0 3.0 0.00 0.00 0.00 77 1016.9
20260507202332 32 72 1.0 3.0 0.00 0.00 0.00 77 1016.9
20260507201823 33 72 2.0 4.0 0.00 0.00 0.00 77 1016.8
20260507201356 33 72 2.0 4.0 0.00 0.00 0.00 76 1016.7
20260507200830 33 73 1.0 4.0 0.00 0.00 0.00 76 1016.7
20260507200323 33 69 1.0 4.0 0.00 0.00 0.00 76 1016.6
20260507195834 34 68 1.0 3.0 0.00 0.00 0.00 76 1016.5
20260507195324 34 69 0.0 4.0 0.00 0.00 0.00 75 1016.5
20260507194836 34 69 2.0 3.0 0.00 0.00 0.00 75 1016.4
20260507194328 34 68 2.0 3.0 0.00 0.00 0.00 76 1016.4
20260507193819 35 69 0.0 1.0 0.00 0.00 0.00 75 1016.4
20260507193331 35 69 0.0 0.0 0.00 0.00 0.00 75 1016.3
20260507192829 35 69 0.0 1.0 0.00 0.00 0.00 75 1016.3
20260507192320 35 69 0.0 1.0 0.00 0.00 0.00 75 1016.2
20260507191833 35 69 0.0 1.0 0.00 0.00 0.00 73 1016.2
20260507191324 35 69 0.0 1.0 0.00 0.00 0.00 74 1016.1
20260507190837 36 69 0.0 2.0 0.00 0.00 0.00 74 1016.1
20260507190330 36 69 1.0 3.0 0.00 0.00 0.00 74 1016.0
20260507185821 36 68 0.0 4.0 0.00 0.00 0.00 74 1015.9
20260507185333 36 68 0.0 4.0 0.00 0.00 0.00 74 1015.9
20260507184830 36 20 2.0 3.0 0.00 0.00 0.00 73 1016.0
20260507184321 37 8 0.0 3.0 0.00 0.00 0.00 73 1016.0
20260507183856 37 7 0.0 3.0 0.00 0.00 0.00 73 1016.0
20260507183349 37 7 0.0 4.0 0.00 0.00 0.00 72 1016.1
20260507182859 37 6 1.0 4.0 0.00 0.00 0.00 72 1016.1
20260507182329 37 6 1.0 4.0 0.00 0.00 0.00 72 1016.0
20260507181822 38 13 1.0 6.0 0.00 0.00 0.00 71 1016.0
20260507181334 38 14 2.0 6.0 0.00 0.00 0.00 70 1016.0
20260507180845 38 15 2.0 6.0 0.00 0.00 0.00 70 1015.9
20260507180317 39 336 3.0 5.0 0.00 0.00 0.00 70 1015.9
20260507175830 39 340 3.0 7.0 0.00 0.00 0.00 70 1015.8
20260507175326 39 339 4.0 9.0 0.00 0.00 0.00 69 1015.8
20260507174837 39 319 2.0 9.0 0.00 0.00 0.00 69 1015.6
20260507174329 39 313 4.0 6.0 0.00 0.00 0.00 69 1015.6
20260507173843 39 328 2.0 4.0 0.00 0.00 0.00 70 1015.6
20260507173336 39 343 2.0 7.0 0.00 0.00 0.00 69 1015.5
20260507172849 39 343 1.0 7.0 0.00 0.04 0.00 69 1015.5
20260507172321 39 332 2.0 6.0 0.00 0.04 0.00 69 1015.5
20260507171832 39 351 3.0 6.0 0.00 0.04 0.00 69 1015.5
20260507171325 39 360 4.0 6.0 0.00 0.04 0.00 69 1015.4
20260507170822 39 334 2.0 5.0 0.00 0.04 0.00 68 1015.4
20260507170334 39 18 2.0 6.0 0.00 0.04 0.00 68 1015.4
20260507165825 39 346 3.0 6.0 0.00 0.04 0.00 68 1015.4
20260507165317 40 300 3.0 6.0 0.00 0.04 0.00 67 1015.4
20260507164831 40 296 3.0 8.0 0.00 0.04 0.00 67 1015.4
20260507164322 39 325 2.0 6.0 0.00 0.04 0.00 69 1015.3
20260507163836 39 291 2.0 6.0 0.00 0.04 0.00 68 1015.3
20260507163327 40 281 2.0 7.0 0.00 0.04 0.00 67 1015.4
20260507162824 40 328 2.0 9.0 0.00 0.04 0.00 67 1015.3
20260507162336 40 261 3.0 9.0 0.00 0.04 0.00 66 1015.3
20260507161829 40 262 4.0 9.0 0.00 0.04 0.00 64 1015.2
20260507161320 40 307 2.0 9.0 0.00 0.04 0.00 67 1015.2
20260507160830 40 277 3.0 10.0 0.00 0.04 0.00 67 1015.1
20260507160322 41 286 5.0 10.0 0.00 0.04 0.00 67 1015.2
20260507155834 41 318 5.0 10.0 0.00 0.04 0.00 65 1015.1
20260507155347 41 313 3.0 10.0 0.00 0.04 0.00 64 1015.1
20260507154857 41 270 3.0 11.0 0.00 0.04 0.00 63 1015.0
20260507154332 41 326 4.0 11.0 0.00 0.04 0.00 62 1015.0
20260507153841 41 319 3.0 7.0 0.00 0.04 0.00 59 1015.0
20260507153332 41 333 4.0 9.0 0.00 0.04 0.00 59 1014.9
20260507152825 42 281 2.0 9.0 0.00 0.04 0.00 57 1014.9
20260507152336 42 320 3.0 8.0 0.00 0.04 0.00 56 1014.9
20260507151829 43 281 4.0 9.0 0.00 0.04 0.00 53 1014.8
20260507151320 44 311 4.0 11.0 0.00 0.04 0.00 51 1014.7
20260507150830 44 301 4.0 11.0 0.00 0.04 0.00 51 1014.7
20260507150325 45 317 4.0 10.0 0.00 0.04 0.00 52 1014.6
20260507145838 45 310 2.0 10.0 0.00 0.04 0.00 52 1014.6
20260507145330 44 303 4.0 9.0 0.00 0.04 0.00 54 1014.6
20260507144841 43 305 4.0 9.0 0.00 0.04 0.00 57 1014.5
20260507144334 43 337 3.0 6.0 0.00 0.04 0.00 56 1014.6
20260507143846 43 52 0.0 5.0 0.00 0.04 0.00 55 1014.6
20260507143338 44 52 2.0 7.0 0.00 0.04 0.00 53 1014.5
20260507142827 44 3 1.0 7.0 0.00 0.04 0.00 53 1014.5
20260507142321 44 18 3.0 10.0 0.00 0.04 0.00 56 1014.6
20260507141832 44 326 3.0 10.0 0.00 0.04 0.00 57 1014.5
20260507141344 44 316 4.0 9.0 0.00 0.04 0.00 55 1014.4
20260507140820 44 357 4.0 8.0 0.00 0.04 0.00 56 1014.5
20260507140332 44 6 3.0 7.0 0.00 0.04 0.00 57 1014.4
20260507135823 45 349 2.0 5.0 0.00 0.04 0.00 53 1014.4
20260507135336 44 281 1.0 11.0 0.00 0.04 0.00 57 1014.3
20260507134848 44 331 4.0 11.0 0.00 0.04 0.00 57 1014.3
20260507134321 44 326 3.0 10.0 0.00 0.04 0.00 58 1014.3
20260507133834 44 330 2.0 9.0 0.00 0.04 0.00 58 1014.3
20260507133326 44 22 4.0 9.0 0.00 0.04 0.00 58 1014.3
20260507132818 44 296 2.0 9.0 0.00 0.04 0.00 58 1014.2
20260507132334 43 343 3.0 9.0 0.00 0.04 0.00 59 1014.2
20260507131825 43 332 3.0 9.0 0.00 0.04 0.00 59 1014.2
20260507131316 43 326 4.0 8.0 0.00 0.04 0.00 59 1014.2
20260507130830 43 310 3.0 8.0 0.00 0.04 0.00 58 1014.2
20260507130323 43 319 3.0 11.0 0.00 0.04 0.00 58 1014.2
20260507125854 43 322 4.0 11.0 0.00 0.04 0.00 59 1014.2
20260507125324 43 295 2.0 7.0 0.00 0.04 0.00 57 1014.2
20260507124835 43 349 3.0 9.0 0.00 0.04 0.00 59 1014.2
20260507124329 43 325 2.0 10.0 0.00 0.04 0.00 57 1014.1
20260507123819 44 331 6.0 10.0 0.00 0.04 0.00 57 1014.1
20260507123333 44 291 4.0 10.0 0.00 0.04 0.00 57 1014.1
20260507122824 44 326 3.0 10.0 0.00 0.04 0.00 55 1014.0
20260507122335 44 333 4.0 9.0 0.00 0.04 0.00 55 1014.0
20260507121829 45 330 4.0 7.0 0.00 0.04 0.00 53 1014.0
20260507121320 45 328 3.0 6.0 0.00 0.04 0.00 52 1013.9
20260507120833 46 349 4.0 6.0 0.00 0.04 0.00 51 1013.9
20260507120326 45 324 2.0 7.0 0.00 0.04 0.00 53 1013.9
20260507115821 45 323 4.0 7.0 0.00 0.04 0.00 52 1013.8
20260507115334 45 333 2.0 10.0 0.00 0.04 0.00 52 1013.9
20260507114822 45 315 4.0 10.0 0.00 0.04 0.00 51 1013.8
20260507114336 45 264 4.0 10.0 0.00 0.04 0.00 52 1013.7
20260507113827 45 326 5.0 9.0 0.00 0.04 0.00 51 1013.6
20260507113321 45 342 2.0 6.0 0.00 0.04 0.00 48 1013.6
20260507112834 45 343 3.0 6.0 0.00 0.04 0.00 51 1013.6
20260507112327 44 309 3.0 7.0 0.00 0.04 0.00 58 1013.5
20260507111843 43 8 2.0 8.0 0.00 0.04 0.00 54 1013.5
20260507111336 43 325 3.0 9.0 0.00 0.04 0.00 56 1013.5
20260507110826 42 360 3.0 10.0 0.00 0.04 0.00 56 1013.4
20260507110320 42 303 4.0 10.0 0.00 0.04 0.00 56 1013.4
20260507105830 42 314 3.0 10.0 0.00 0.04 0.00 52 1013.3
20260507105344 43 319 2.0 8.0 0.00 0.04 0.00 54 1013.4
20260507104835 42 341 3.0 5.0 0.00 0.04 0.00 56 1013.3
20260507104328 41 295 2.0 5.0 0.00 0.04 0.00 56 1013.4
20260507103817 41 297 2.0 6.0 0.00 0.04 0.00 56 1013.3
20260507103334 42 316 3.0 10.0 0.00 0.04 0.00 55 1013.2
20260507102825 42 291 5.0 10.0 0.00 0.04 0.00 53 1013.2
20260507102356 42 341 2.0 5.0 0.00 0.04 0.00 53 1013.1
20260507101828 42 310 2.0 9.0 0.00 0.04 0.00 53 1013.1
20260507101341 41 330 5.0 9.0 0.00 0.04 0.00 56 1013.1
20260507100831 41 299 3.0 5.0 0.00 0.04 0.00 54 1013.0
20260507100322 41 308 1.0 5.0 0.00 0.04 0.00 54 1013.0
20260507095834 41 277 2.0 6.0 0.00 0.04 0.00 52 1012.9
20260507095327 40 323 2.0 6.0 0.00 0.04 0.00 56 1013.0
20260507094821 40 254 1.0 6.0 0.00 0.04 0.00 57 1012.9
20260507094353 40 258 3.0 6.0 0.00 0.04 0.00 54 1013.0
20260507093837 41 305 1.0 9.0 0.00 0.04 0.00 52 1012.9
20260507093329 41 322 3.0 9.0 0.00 0.04 0.00 55 1012.9
20260507092818 41 313 0.0 4.0 0.00 0.12 0.00 53 1012.8
20260507092330 41 323 2.0 9.0 0.00 0.12 0.00 53 1012.9
20260507091838 42 341 5.0 9.0 0.00 0.12 0.00 55 1012.8
20260507091329 42 335 2.0 9.0 0.00 0.12 0.00 55 1012.8
20260507090820 42 359 3.0 9.0 0.00 0.12 0.00 54 1012.7
20260507090333 42 335 2.0 7.0 0.00 0.12 0.00 54 1012.7
20260507085825 41 338 4.0 7.0 0.00 0.12 0.00 56 1012.6
20260507085358 41 357 1.0 5.0 0.00 0.12 0.00 55 1012.6
20260507084826 41 349 0.0 3.0 0.00 0.12 0.00 54 1012.6
20260507084318 41 348 1.0 3.0 0.00 0.12 0.00 54 1012.5
20260507083830 42 347 1.0 5.0 0.00 0.12 0.00 55 1012.5
20260507083322 41 341 4.0 5.0 0.00 0.12 0.00 60 1012.5
20260507082835 40 343 0.0 5.0 0.00 0.20 0.00 59 1012.5
20260507082326 39 344 1.0 8.0 0.00 0.20 0.00 59 1012.4
20260507081838 39 346 3.0 8.0 0.00 0.20 0.00 60 1012.4
20260507081328 39 329 2.0 6.0 0.00 0.20 0.00 60 1012.4
20260507080824 39 310 2.0 5.0 0.00 0.20 0.00 62 1012.4
20260507080316 39 286 2.0 5.0 0.00 0.20 0.00 63 1012.3
20260507075850 39 328 2.0 5.0 0.00 0.20 0.00 66 1012.3
20260507075320 39 316 0.0 5.0 0.00 0.20 0.00 65 1012.3
20260507074854 39 315 2.0 9.0 0.00 0.20 0.00 66 1012.3
20260507074323 39 326 2.0 9.0 0.00 0.20 0.00 67 1012.3
20260507073836 39 332 2.0 6.0 0.00 0.20 0.00 69 1012.2
20260507073328 38 330 3.0 6.0 0.00 0.20 0.00 69 1012.2
20260507072835 38 328 1.0 4.0 0.00 0.31 0.00 68 1012.2
20260507072330 38 328 2.0 4.0 0.00 0.31 0.00 69 1012.2
20260507071821 37 4 0.0 6.0 0.00 0.31 0.00 72 1012.0
20260507071332 37 3 2.0 6.0 0.00 0.31 0.00 72 1012.0
20260507070825 37 347 0.0 3.0 0.00 0.31 0.00 71 1011.9
20260507070318 36 347 1.0 3.0 0.00 0.31 0.00 73 1011.9
20260507065829 36 345 1.0 3.0 0.00 0.31 0.00 74 1011.9
20260507065341 36 43 1.0 3.0 0.00 0.31 0.00 75 1012.0
20260507064834 36 43 2.0 3.0 0.00 0.31 0.00 74 1011.8
20260507064326 36 16 0.0 4.0 0.00 0.31 0.00 75 1011.8
20260507063818 36 16 2.0 4.0 0.00 0.31 0.00 76 1011.8
20260507063332 35 59 0.0 4.0 0.00 0.31 0.00 77 1011.7
20260507062820 35 79 1.0 3.0 0.00 0.35 0.00 77 1011.7
20260507062333 35 82 0.0 1.0 0.00 0.35 0.00 77 1011.7
20260507061845 35 82 0.0 3.0 0.00 0.35 0.00 79 1011.6
20260507061317 34 82 1.0 3.0 0.00 0.35 0.00 80 1011.6
20260507060831 34 85 0.0 2.0 0.00 0.35 0.00 80 1011.6
20260507060345 34 86 0.0 0.0 0.00 0.35 0.00 81 1011.5
20260507055832 34 86 0.0 0.0 0.00 0.35 0.00 83 1011.4
20260507055329 34 86 0.0 2.0 0.00 0.35 0.00 83 1011.4
20260507054840 33 86 0.0 2.0 0.00 0.35 0.00 83 1011.4
20260507054333 33 87 0.0 1.0 0.00 0.35 0.00 83 1011.5